Regional Weather Roundup
Issued by NWS

Home | Current Version | Previous Version | Graphics & Text | Print | Product List | Glossary On
Versions: 1 2 3 4 5 6 7 8 9 10 11 12 13 14 15 16 17 18 19 20 21 22 23 24 25 26 27 28 29 30 31 32 33 34 35 36 37 38 39 40 41 42 43 44 45 46 47 48 49 50
000
ASUS45 KCYS 180910
RWRWY

WYOMING REGIONAL WEATHER ROUNDUP
NATIONAL WEATHER SERVICE CHEYENNE WY
200 AM MST THU DEC 18 2014

NOTE:  "FAIR" INDICATES FEW OR NO CLOUDS BELOW 12,000 FEET
WITH NO SIGNIFICANT WEATHER AND/OR OBSTRUCTIONS TO VISIBILITY.

WYZ001-181000-
YELLOWSTONE NATIONAL PARK

CITY           SKY/WX    TMP DP  RH WIND       PRES   REMARKS
LK YELLOWSTONE   N/A     21  15  78 VRB3      30.01R
W YELLOWSTONE  NOT AVBL

$$
WYZ002>013-054>058-071-098>099-181000-
NORTHERN WYOMING

CITY           SKY/WX    TMP DP  RH WIND       PRES   REMARKS
JACKSON        CLOUDY    12  12 100 N8        30.02S WCI   1
CODY           FAIR      23  16  74 NE5       29.94R WCI  17
GREYBULL       FAIR      10   7  87 CALM      30.01S
WORLAND        FAIR      -2  -5  87 CALM      29.99S
SHERIDAN       FAIR      14  11  87 MISG      29.94R
BUFFALO        FAIR      23  17  78 W9        29.94S WCI  13
GILLETTE       FAIR      24  18  77 S5        29.94S WCI  18
HULETT           N/A    N/A N/A N/A MISG        N/A
NEWCASTLE      FOG       12  10  92 CALM      29.99R VSB 3/4

$$
WYZ014>020-022>026-101>103-181000-
CENTRAL WYOMING

CITY           SKY/WX    TMP DP  RH WIND       PRES   REMARKS
BIG PINEY      FAIR      12   8  84 CALM      30.03S
PINEDALE       FLURRIES  18  16  93 W3        30.03S
DUBOIS         CLOUDY    23  16  74 NW9       29.96R WCI  13
LANDER         FAIR       2  -3  80 CALM      29.97R
RIVERTON       HAZE      12   7  80 CALM      29.99R VSB 1/4
CASPER         FAIR      23  16  74 SW9       29.95S WCI  13
DOUGLAS        FAIR       9   4  80 CALM      29.98R

$$
WYZ021-027>030-104>119-181000-
SOUTHERN WYOMING

CITY           SKY/WX    TMP DP  RH WIND       PRES   REMARKS
EVANSTON       FAIR      23  19  85 SW7       30.03S WCI  15
KEMMERER       PTSUNNY   21  18  86 W3        30.02S
FORT BRIDGER   FAIR      26  23  89 SW9       30.04F WCI  16
ROCK SPRINGS   FAIR      16  12  84 W12       30.01F WCI   3
DIXON          CLOUDY   N/A N/A N/A SE5       30.09R
RAWLINS        FAIR      20  15  81 SW7       30.00R WCI  11
SARATOGA       CLOUDY    14   9  79 S3        30.01S
LARAMIE        FAIR      10   7  87 CALM      29.96S
CHEYENNE       FAIR      24  16  71 W9        29.96R WCI  14
TORRINGTON     FOG       10   8  92 CALM      30.00R VSB 1/4
PINE BLUFFS    CLOUDY    28  23  80 W3        29.98S

$$



USA.gov is the U.S. government's official web portal to all federal, state and local government web resources and services.